Location: Proctor
(47.8934°N, 114.3048°W)
Time: 02:24:59
(UTC+00:00)

AO-73 - Pass Details

Date: 02 July 2022
Orbit: 579 x 657 km, 97.6° (Epoch: 17 August)

Event Time Altitude Azimuth Distance (km) Brightness Sun altitude
Rises 10:42:38 0° 26° (NNE) 2,964 ? -8.3°
Reaches altitude 10° 10:45:20 10° 42° (NE) 2,060 ? -8.0°
Maximum altitude 10:48:45 21° 92° (E) 1,468 ? -7.6°
Drops below altitude 10° 10:52:10 10° 141° (SE) 2,065 ? -7.2°
Sets 10:54:52 0° 157° (SSE) 2,974 ? -6.9°
